Temp
-13 -13 -14 -14 -13 -13 -13 -13 -13 -13 -14 -14 -14 -13 -12 -13 -14 -13 -13 -13 -13 -13 -13 -13 -13 -12 -12 -12 -12 -13 -13 -12 -12 -12 -12 -11 -11 -10 -10 -10 -10 -10 -10 -11
-13 -14 -13 -13 -14 -14 -14 -14 -14 -14 -15 -15 -15 -14 -14 -14 -14 -14 -14 -14 -14 -13 -13 -14 -14 -13 -13 -13 -13 -12 -12 -12 -12 -12 -12 -12 -11 -10 -11 -11 -11 -10 -10 -10
-12 -13 -13 -13 -14 -14 -14 -15 -15 -15 -16 -16 -16 -15 -14 -15 -15 -16 -15 -15 -15 -14 -14 -14 -14 -14 -14 -13 -13 -13 -13 -13 -12 -12 -11 -12 -12 -11 -11 -11 -11 -11 -10 -9
-13 -14 -14 -14 -14 -15 -15 -16 -16 -17 -17 -16 -17 -17 -15 -15 -16 -17 -16 -15 -16 -15 -14 -14 -14 -14 -14 -14 -13 -13 -13 -13 -13 -12 -12 -12 -12 -12 -12 -12 -12 -12 -12 -11
-14 -14 -14 -14 -15 -16 -16 -17 -18 -18 -18 -18 -17 -17 -15 -16 -16 -16 -17 -16 -16 -16 -15 -14 -14 -14 -14 -14 -13 -13 -13 -13 -13 -13 -13 -12 -12 -12 -12 -12 -12 -11 -11 -12
-13 -13 -13 -14 -16 -18 -18 -18 -18 -19 -19 -19 -17 -18 -17 -16 -17 -17 -17 -17 -17 -17 -16 -15 -15 -15 -14 -14 -14 -14 -14 -14 -14 -14 -14 -13 -13 -12 -12 -12 -12 -12 -12 -12
-14 -14 -14 -15 -16 -18 -19 -19 -18 -19 -19 -18 -18 -19 -17 -17 -17 -17 -18 -17 -17 -16 -16 -16 -15 -15 -15 -15 -14 -14 -15 -15 -15 -15 -14 -14 -13 -13 -13 -13 -13 -13 -13 -12
-14 -14 -15 -17 -17 -18 -19 -19 -19 -19 -18 -18 -18 -18 -17 -17 -17 -18 -17 -17 -17 -16 -16 -16 -16 -16 -16 -16 -16 -16 -16 -15 -15 -15 -15 -14 -13 -13 -13 -13 -14 -14 -14 -14
-15 -15 -15 -16 -17 -18 -19 -19 -20 -20 -19 -19 -18 -18 -18 -18 -18 -18 -18 -17 -16 -16 -16 -16 -17 -17 -17 -17 -17 -17 -17 -16 -15 -15 -14 -14 -14 -13 -13 -14 -14 -14 -14 -14
-16 -16 -16 -17 -18 -19 -19 -20 -20 -20 -19 -19 -19 -18 -18 -18 -18 -18 -19 -18 -17 -17 -18 -17 -17 -17 -17 -17 -17 -17 -18 -17 -15 -15 -14 -14 -14 -14 -14 -14 -14 -14 -14 -14
-16 -16 -17 -18 -18 -18 -20 -20 -20 -19 -20 -20 -19 -18 -19 -19 -19 -19 -19 -18 -18 -17 -18 -17 -17 -17 -17 -17 -17 -17 -17 -17 -17 -17 -16 -15 -14 -14 -14 -14 -14 -14 -14 -14
-16 -17 -18 -19 -19 -20 -20 -21 -21 -21 -21 -20 -20 -19 -19 -19 -19 -19 -19 -19 -19 -18 -17 -17 -17 -17 -17 -16 -16 -16 -17 -17 -17 -17 -17 -16 -15 -14 -14 -14 -14 -14 -14 -14
-17 -17 -19 -20 -20 -20 -21 -21 -21 -21 -21 -20 -21 -20 -19 -19 -19 -18 -18 -18 -19 -19 -18 -18 -17 -17 -17 -17 -17 -17 -17 -17 -17 -16 -16 -16 -16 -16 -16 -15 -15 -15 -14 -14
-17 -19 -19 -20 -20 -20 -21 -21 -21 -21 -21 -21 -21 -20 -19 -19 -20 -19 -19 -19 -19 -18 -18 -18 -18 -18 -18 -17 -17 -17 -17 -17 -16 -16 -16 -17 -16 -16 -16 -16 -15 -15 -15 -15
-18 -19 -20 -20 -20 -20 -21 -21 -21 -21 -21 -21 -21 -20 -20 -19 -20 -20 -19 -19 -19 -18 -18 -18 -19 -19 -18 -18 -18 -18 -17 -17 -17 -16 -16 -17 -17 -16 -16 -15 -15 -15 -15 -15
-19 -19 -20 -21 -20 -20 -21 -21 -21 -21 -21 -21 -21 -20 -20 -20 -19 -19 -19 -19 -19 -19 -19 -18 -18 -18 -18 -18 -18 -18 -18 -18 -17 -16 -16 -17 -18 -17 -16 -16 -16 -15 -15 -15
-19 -20 -20 -20 -21 -21 -21 -21 -21 -21 -21 -21 -21 -21 -20 -20 -19 -19 -20 -20 -19 -19 -18 -19 -19 -18 -18 -18 -18 -18 -18 -17 -17 -17 -17 -17 -17 -17 -17 -17 -16 -16 -16 -16
-20 -20 -20 -20 -21 -21 -21 -21 -21 -21 -21 -21 -21 -21 -20 -20 -20 -20 -20 -20 -19 -19 -19 -19 -18 -19 -19 -18 -18 -18 -18 -18 -18 -17 -17 -17 -17 -16 -17 -17 -17 -17 -16 -16
-20 -20 -20 -20 -20 -20 -21 -21 -20 -20 -20 -20 -20 -20 -20 -20 -19 -19 -20 -20 -19 -19 -19 -18 -18 -18 -18 -18 -19 -19 -19 -18 -18 -18 -18 -17 -17 -17 -18 -17 -17 -17 -17 -16
-20 -20 -20 -20 -20 -20 -20 -20 -20 -20 -20 -20 -20 -20 -20 -19 -19 -18 -19 -19 -19 -19 -19 -18 -18 -18 -18 -18 -18 -18 -18 -18 -18 -18 -18 -18 -18 -17 -17 -17 -17 -17 -17 -16
-20 -20 -20 -20 -20 -20 -20 -20 -20 -20 -20 -20 -20 -20 -20 -19 -19 -18 -18 -18 -18 -18 -18 -18 -18 -18 -18 -18 -18 -18 -18 -17 -18 -18 -18 -18 -18 -18 -17 -17 -17 -17 -17 -17
-20 -20 -21 -20 -20 -20 -20 -20 -20 -20 -20 -20 -19 -19 -19 -18 -18 -18 -18 -18 -17 -17 -17 -17 -17 -17 -17 -18 -18 -18 -18 -18 -18 -18 -18 -18 -18 -18 -18 -18 -18 -17 -17 -16
-21 -21 -21 -20 -20 -20 -20 -20 -20 -20 -19 -18 -18 -18 -18 -18 -17 -17 -16 -15 -16 -16 -16 -16 -16 -16 -17 -16 -16 -16 -17 -17 -18 -19 -18 -18 -19 -18 -19 -18 -18 -18 -17 -17
-21 -21 -21 -20 -20 -20 -20 -20 -20 -19 -18 -18 -19 -18 -18 -17 -16 -15 -15 -15 -15 -15 -15 -15 -16 -17 -16 -15 -16 -15 -15 -16 -17 -18 -19 -19 -19 -19 -19 -18 -18 -17 -17 -17
-21 -21 -21 -20 -20 -20 -20 -20 -19 -20 -19 -19 -18 -18 -17 -16 -15 -15 -15 -14 -16 -16 -16 -16 -15 -16 -15 -15 -15 -15 -16 -16 -16 -17 -17 -19 -19 -19 -19 -18 -18 -18 -18 -18
-20 -21 -21 -20 -20 -20 -20 -20 -20 -19 -18 -18 -17 -16 -16 -15 -14 -14 -15 -14 -14 -14 -15 -16 -16 -16 -15 -15 -15 -15 -15 -15 -15 -17 -18 -18 -18 -18 -18 -18 -18 -18 -18 -17
Height
5737 5737 5737 5733 5732 5732 5731 5730 5728 5728 5727 5725 5726 5728 5734 5729 5728 5735 5740 5743 5742 5745 5751 5750 5755 5759 5763 5770 5775 5778 5782 5785 5785 5787 5791 5793 5796 5795 5794 5799 5803 5807 5810 5816
5732 5730 5728 5725 5724 5723 5721 5719 5717 5717 5717 5713 5714 5715 5722 5721 5718 5723 5728 5731 5734 5735 5736 5738 5741 5745 5749 5755 5761 5766 5770 5772 5774 5776 5779 5783 5784 5784 5786 5789 5794 5798 5803 5806
5726 5722 5721 5718 5717 5713 5711 5709 5707 5706 5707 5704 5701 5700 5709 5712 5709 5712 5715 5719 5722 5724 5725 5726 5730 5734 5738 5742 5748 5753 5756 5758 5761 5762 5766 5770 5773 5775 5776 5778 5780 5782 5786 5793
5721 5715 5712 5712 5709 5706 5703 5702 5696 5694 5692 5691 5690 5683 5693 5700 5696 5699 5703 5706 5709 5711 5712 5712 5716 5722 5727 5731 5734 5739 5742 5744 5746 5748 5752 5757 5759 5764 5767 5768 5772 5776 5779 5782
5715 5709 5705 5703 5700 5697 5694 5690 5688 5685 5681 5678 5682 5675 5682 5684 5684 5690 5691 5691 5695 5697 5700 5703 5706 5713 5719 5722 5725 5727 5729 5733 5736 5737 5740 5744 5746 5750 5753 5757 5759 5763 5768 5772
5703 5700 5697 5695 5693 5688 5683 5681 5679 5676 5672 5666 5673 5668 5669 5674 5671 5670 5674 5676 5679 5683 5687 5692 5697 5702 5705 5708 5712 5716 5717 5720 5723 5726 5730 5732 5734 5737 5740 5744 5747 5749 5754 5758
5692 5690 5685 5681 5677 5676 5673 5670 5665 5661 5660 5656 5662 5657 5660 5662 5661 5659 5657 5663 5668 5672 5676 5682 5688 5691 5694 5698 5700 5703 5705 5707 5708 5713 5716 5719 5722 5724 5727 5731 5735 5739 5741 5745
5682 5680 5678 5674 5669 5665 5663 5661 5656 5648 5646 5647 5650 5647 5651 5651 5651 5651 5650 5653 5656 5660 5662 5667 5675 5680 5683 5685 5687 5689 5692 5694 5696 5700 5702 5705 5709 5713 5716 5720 5724 5729 5731 5734
5673 5669 5668 5661 5656 5652 5648 5646 5644 5639 5637 5636 5639 5640 5641 5639 5640 5641 5641 5642 5644 5646 5647 5651 5660 5667 5670 5674 5676 5679 5680 5681 5683 5687 5692 5695 5699 5703 5706 5710 5713 5716 5722 5725
5667 5661 5659 5653 5647 5641 5636 5634 5631 5631 5628 5625 5628 5629 5630 5629 5630 5632 5634 5634 5633 5636 5637 5639 5645 5652 5656 5658 5661 5665 5668 5668 5670 5673 5679 5683 5687 5691 5695 5699 5703 5707 5711 5713
5660 5655 5653 5644 5636 5632 5628 5625 5625 5624 5625 5619 5619 5623 5622 5622 5622 5625 5627 5627 5627 5628 5631 5633 5635 5639 5643 5646 5649 5650 5652 5655 5659 5662 5667 5670 5674 5678 5683 5687 5692 5696 5699 5702
5651 5645 5641 5634 5629 5624 5620 5618 5617 5617 5616 5614 5613 5618 5616 5618 5616 5618 5619 5619 5621 5621 5620 5623 5624 5627 5632 5634 5636 5639 5643 5646 5651 5655 5657 5660 5662 5665 5669 5673 5677 5680 5684 5688
5642 5636 5633 5630 5626 5621 5617 5615 5612 5610 5609 5611 5608 5612 5610 5610 5609 5609 5610 5612 5614 5615 5616 5613 5615 5618 5620 5623 5629 5633 5636 5639 5642 5646 5649 5650 5652 5654 5657 5660 5664 5669 5673 5676
5635 5632 5628 5624 5621 5617 5614 5611 5608 5606 5604 5605 5604 5604 5604 5605 5605 5604 5604 5604 5605 5607 5608 5608 5610 5610 5613 5616 5619 5623 5626 5628 5628 5629 5635 5638 5641 5643 5646 5649 5653 5657 5662 5666
5630 5627 5623 5619 5615 5612 5610 5608 5605 5603 5602 5599 5601 5599 5598 5598 5597 5598 5598 5596 5594 5598 5598 5598 5600 5600 5600 5602 5605 5606 5610 5611 5613 5616 5618 5625 5630 5632 5635 5637 5641 5646 5651 5655
5625 5623 5620 5616 5612 5608 5606 5604 5601 5598 5598 5596 5595 5595 5593 5593 5592 5592 5590 5587 5586 5584 5585 5587 5587 5589 5591 5590 5592 5592 5594 5597 5599 5602 5604 5609 5613 5620 5624 5626 5629 5634 5638 5643
5619 5617 5614 5612 5606 5604 5604 5601 5598 5597 5595 5591 5588 5588 5587 5585 5583 5581 5579 5576 5574 5573 5571 5569 5570 5571 5572 5573 5574 5577 5579 5580 5583 5586 5590 5595 5600 5603 5609 5613 5617 5622 5626 5630
5614 5612 5610 5608 5603 5602 5600 5597 5595 5594 5592 5589 5586 5584 5582 5580 5576 5574 5569 5564 5561 5558 5557 5553 5551 5551 5553 5553 5554 5556 5559 5563 5566 5569 5575 5579 5583 5587 5593 5598 5604 5608 5612 5617
5609 5607 5605 5604 5601 5599 5597 5595 5592 5590 5590 5584 5581 5577 5573 5568 5562 5565 5556 5549 5546 5541 5539 5535 5533 5532 5531 5530 5532 5533 5536 5541 5544 5551 5555 5561 5565 5570 5576 5583 5590 5594 5598 5603
5604 5603 5602 5600 5598 5597 5594 5591 5588 5584 5582 5578 5573 5567 5562 5555 5546 5551 5539 5534 5529 5523 5518 5514 5512 5508 5506 5508 5510 5509 5513 5516 5520 5528 5534 5539 5545 5550 5556 5564 5570 5576 5581 5587
5600 5599 5599 5597 5594 5595 5592 5589 5585 5582 5578 5569 5562 5556 5550 5542 5535 5530 5526 5520 5512 5505 5499 5493 5487 5482 5482 5482 5481 5481 5484 5487 5498 5504 5509 5516 5522 5530 5537 5544 5551 5557 5563 5569
5596 5596 5594 5594 5592 5592 5588 5585 5580 5575 5569 5560 5553 5547 5539 5532 5526 5518 5511 5505 5497 5486 5478 5469 5461 5458 5455 5452 5450 5452 5455 5465 5472 5475 5483 5492 5500 5509 5518 5525 5532 5536 5541 5547
5591 5591 5590 5591 5590 5586 5583 5579 5574 5567 5559 5553 5545 5538 5531 5523 5514 5504 5496 5491 5482 5474 5464 5454 5444 5441 5437 5431 5428 5424 5428 5435 5443 5451 5457 5468 5478 5487 5497 5504 5512 5518 5524 5529
5584 5584 5585 5586 5586 5583 5579 5575 5569 5560 5553 5547 5538 5532 5524 5514 5505 5498 5492 5485 5476 5466 5454 5443 5432 5425 5418 5408 5406 5406 5408 5410 5420 5430 5439 5450 5459 5468 5477 5485 5493 5501 5508 5513
5578 5578 5581 5581 5581 5579 5575 5569 5563 5557 5548 5541 5535 5527 5518 5510 5501 5494 5490 5482 5472 5461 5450 5438 5424 5410 5403 5395 5389 5389 5393 5395 5400 5415 5427 5436 5444 5452 5461 5470 5479 5486 5493 5499
5573 5574 5577 5578 5578 5576 5573 5566 5560 5553 5547 5540 5531 5522 5515 5508 5501 5495 5489 5481 5470 5461 5450 5436 5423 5409 5397 5387 5380 5379 5382 5384 5392 5405 5418 5427 5433 5441 5450 5459 5468 5475 5481 5487
Wind_Speed
21 22 21 28 31 32 34 37 40 42 45 48 49 52 52 54 54 53 48 52 59 64 70 69 67 66 65 62 56 54 46 51 53 48 55 54 60 65 65 52 67 67 63 57
23 23 26 30 32 36 39 42 44 45 44 49 49 52 51 52 55 54 52 49 54 57 65 72 71 67 69 63 61 52 46 51 53 51 47 60 59 67 65 60 62 54 58 64
25 29 30 33 36 40 42 44 46 50 44 48 51 52 49 50 50 52 54 53 50 52 58 60 60 70 71 68 60 53 49 51 50 48 50 52 64 57 67 68 60 56 65 52
24 30 33 35 37 40 44 40 43 39 43 44 45 52 48 47 53 50 52 53 51 57 56 58 61 64 65 64 59 54 51 51 50 51 50 50 59 66 55 58 75 65 66 74
26 30 34 35 36 37 42 40 39 37 43 48 40 49 41 40 48 50 51 53 53 55 58 63 63 57 54 52 54 56 53 51 48 52 52 52 55 61 69 67 60 63 80 74
31 34 36 37 33 36 40 42 39 42 46 51 32 44 42 32 36 44 56 57 58 58 58 51 45 45 50 49 49 48 51 49 46 46 47 49 51 54 59 66 70 68 64 60
34 37 41 45 48 44 44 45 50 53 48 52 38 42 38 35 29 32 42 55 63 58 59 56 44 45 49 50 48 48 51 52 51 46 44 46 49 51 55 59 62 60 61 62
38 41 44 47 50 51 49 48 51 55 52 42 38 38 33 37 37 31 33 42 51 61 68 62 54 52 54 50 44 42 43 50 52 50 49 50 50 50 54 55 56 58 52 51
41 45 46 51 54 55 54 51 51 47 34 40 40 35 31 32 34 36 36 35 40 46 51 59 63 53 54 51 47 37 36 36 41 46 52 53 50 48 49 51 54 54 57 52
42 46 45 47 47 47 46 40 37 41 45 43 32 31 30 27 29 34 31 30 34 31 35 43 48 51 52 53 46 40 38 43 45 43 45 53 53 50 49 49 51 53 52 49
38 40 37 36 36 34 28 25 26 23 30 24 27 26 27 25 25 28 33 32 29 34 37 44 50 56 56 53 47 48 49 48 40 42 40 43 52 54 52 51 50 49 50 47
35 36 29 26 24 24 21 17 21 28 34 30 32 28 29 27 26 29 33 34 24 30 46 51 56 56 55 52 52 50 44 43 43 45 47 40 42 46 48 50 51 51 51 51
32 30 25 18 20 19 19 19 25 29 25 26 29 25 30 29 30 32 32 31 19 23 40 49 58 58 56 55 54 51 51 50 44 38 43 44 43 44 44 45 45 46 47 45
29 25 24 22 21 21 17 19 20 22 24 20 19 19 24 30 33 20 27 34 27 28 26 28 37 46 54 55 53 51 51 49 44 39 39 37 43 45 45 44 44 43 43 42
25 21 21 21 23 22 17 16 17 16 17 22 17 22 19 23 29 26 26 29 30 29 31 32 39 34 38 46 45 40 47 53 53 48 44 41 42 49 50 49 47 45 45 45
20 18 21 21 22 20 18 18 17 16 18 20 23 23 23 24 27 30 30 32 35 39 40 39 40 42 46 48 45 44 48 50 54 55 50 45 45 46 48 50 50 48 47 46
21 19 19 17 23 20 15 16 14 15 18 19 25 26 28 29 29 30 34 40 42 47 48 45 46 51 51 55 58 55 55 57 54 54 52 50 47 50 53 49 50 49 49 49
20 19 18 18 18 17 19 18 15 18 20 19 19 20 24 26 27 33 40 42 46 49 51 48 52 54 55 59 62 65 64 61 62 63 62 63 61 58 55 45 43 48 51 50
17 18 17 16 13 16 13 15 17 17 15 23 26 31 33 37 40 36 43 49 51 54 56 59 61 60 60 60 61 63 65 64 66 66 64 62 65 63 62 61 56 51 51 54
20 16 15 15 14 15 17 18 21 25 29 31 35 37 39 41 46 37 49 50 52 56 60 64 67 71 73 72 72 73 70 70 68 65 66 71 70 70 67 66 59 60 58 57
18 14 16 16 16 13 15 19 25 30 33 36 40 41 41 43 44 43 43 47 53 57 59 63 68 71 71 70 72 76 76 77 74 74 74 70 68 69 69 71 70 65 65 63
18 16 11 11 16 15 19 23 31 34 36 40 30 31 34 37 36 39 42 45 49 51 54 58 62 63 66 69 70 69 71 73 73 73 70 71 74 73 72 69 68 67 70 70
17 19 22 18 15 18 21 29 33 38 34 28 28 31 39 39 42 46 37 20 29 28 34 34 35 35 42 42 44 49 66 66 62 64 68 66 63 63 64 66 65 62 59 58
18 20 19 17 16 20 26 29 35 35 30 33 40 39 40 43 31 22 23 25 33 34 34 34 36 37 34 37 44 43 38 43 58 55 49 52 50 50 52 53 58 59 57 54
18 17 14 14 15 19 24 30 34 30 33 37 36 37 39 23 26 30 29 30 36 32 29 26 29 30 26 27 25 30 32 33 39 48 39 40 44 44 47 50 48 47 47 48
13 11 12 15 16 17 22 28 28 27 29 29 33 30 28 30 28 28 34 39 45 48 51 47 38 28 24 22 17 13 22 23 36 38 37 31 35 38 41 41 40 41 42 43
Wind_Direction
268 273 273 268 271 270 270 268 268 264 262 258 258 258 254 255 255 252 244 238 240 240 240 244 245 247 248 247 250 258 250 241 256 252 244 245 237 240 241 236 243 229 231 231
273 273 273 275 277 278 277 276 273 273 267 265 260 257 254 256 258 255 251 243 237 242 241 243 246 248 253 254 255 252 246 247 251 249 250 242 243 238 245 249 247 234 233 246
277 277 279 279 280 280 280 281 284 283 270 266 265 261 259 256 258 252 254 244 241 238 239 241 244 249 253 256 256 254 252 252 251 250 247 244 242 246 241 243 248 251 251 234
281 281 278 277 281 283 280 285 287 287 278 268 260 262 254 252 249 242 247 253 245 241 237 239 239 241 246 251 252 250 248 250 250 249 246 243 244 244 246 246 244 244 246 246
278 280 283 287 290 284 287 285 282 286 283 273 268 271 261 254 249 245 237 242 249 247 246 239 240 242 243 245 247 249 248 246 245 246 246 244 245 246 247 249 249 248 245 246
279 284 289 291 291 284 287 279 282 293 282 272 275 274 274 264 263 244 237 233 237 239 245 248 250 245 241 243 244 244 247 249 247 245 247 245 246 248 248 249 253 258 258 257
287 293 299 303 302 296 291 290 282 286 278 271 271 274 285 275 271 260 247 236 238 243 247 251 253 250 255 257 252 247 243 245 246 244 242 243 242 244 247 248 251 255 258 259
293 298 299 300 296 294 289 286 282 288 278 279 258 276 291 280 266 270 259 248 245 245 243 242 243 244 254 255 251 248 245 244 247 241 240 241 240 241 244 247 249 249 256 260
293 297 300 298 296 293 291 285 280 275 267 277 277 281 272 270 250 261 262 258 251 252 247 244 242 247 250 249 249 247 246 248 248 247 241 244 244 244 245 246 249 249 249 254
293 295 296 294 292 288 285 286 278 275 278 272 272 279 269 268 259 245 261 264 264 257 243 233 233 230 234 236 238 239 248 249 245 246 242 238 240 240 243 244 244 246 250 251
290 292 297 296 291 296 289 268 263 263 265 276 282 281 274 278 250 252 253 268 275 261 247 242 233 231 231 231 231 234 238 244 250 262 252 239 237 237 237 241 243 246 248 249
296 300 306 305 307 309 305 278 264 264 263 267 277 277 277 275 266 252 259 268 274 271 257 250 236 234 231 231 230 236 246 254 259 258 256 249 240 238 237 239 243 242 243 246
303 304 311 308 308 315 310 285 266 276 280 270 273 272 280 271 268 259 260 267 261 253 241 225 232 236 237 236 242 245 250 252 255 242 245 245 241 238 239 240 242 244 244 245
302 302 309 310 305 305 307 298 292 275 267 271 274 275 275 263 276 270 270 270 265 270 260 256 249 244 245 248 251 247 248 249 254 257 250 244 241 240 237 235 236 238 242 244
302 299 308 308 307 308 301 289 286 283 280 270 270 279 276 279 272 270 267 271 274 265 261 263 266 247 249 253 253 251 259 258 252 256 251 250 244 241 238 237 238 238 238 240
301 293 303 295 301 304 305 300 276 284 292 283 284 280 274 273 268 265 269 269 273 276 271 256 256 254 252 250 251 252 254 251 250 251 252 243 243 240 233 237 239 242 243 244
298 295 304 301 305 302 302 313 298 284 285 287 281 280 279 283 275 271 275 272 270 271 265 264 262 257 251 250 249 246 250 253 251 243 244 242 247 241 242 240 239 239 240 241
288 296 304 307 308 300 300 302 295 298 282 308 302 291 285 281 275 274 278 279 273 269 264 267 270 268 259 252 248 248 248 246 245 243 244 245 247 243 241 233 246 247 247 246
275 293 299 298 305 313 317 308 304 310 307 303 304 301 299 295 288 286 281 277 275 273 269 268 268 265 264 262 255 256 254 250 243 243 245 247 248 250 248 244 245 246 252 251
288 282 290 295 301 305 308 311 319 317 314 308 303 300 296 291 286 280 279 278 274 272 271 269 267 266 265 263 261 259 255 255 257 251 246 246 246 246 249 248 252 247 253 253
276 262 284 288 295 310 310 310 311 312 314 312 307 302 297 292 291 290 280 277 276 275 273 271 270 269 264 261 259 259 259 257 255 251 251 250 249 248 248 248 249 252 253 254
269 266 267 276 296 310 308 311 316 319 318 312 308 305 295 290 294 295 297 295 294 295 290 282 275 269 265 261 260 257 258 256 254 254 250 248 248 247 248 250 253 254 255 257
268 257 263 278 300 305 309 317 318 318 319 318 316 312 321 321 317 318 327 323 324 322 309 303 295 288 282 281 272 264 258 252 247 246 250 248 246 245 245 246 249 250 251 249
274 262 265 268 286 303 309 314 318 323 320 319 320 326 327 326 339 348 0 343 341 336 329 320 307 296 286 288 263 257 259 254 246 246 245 244 246 246 238 240 241 242 248 245
277 259 256 267 290 303 309 318 325 322 320 321 325 326 332 8 349 345 2 9 1 0 356 350 336 334 315 303 276 257 248 252 222 231 236 237 241 232 229 232 234 236 238 239
275 244 254 264 285 302 315 318 320 322 319 329 338 344 352 353 16 15 29 19 16 10 3 10 12 359 337 331 317 263 251 241 211 206 218 229 227 223 225 230 234 235 235 238